Home > Weather > Rancho Cucamonga > Past weeks

Flag for USA Past Weather in Rancho Cucamonga, California, USA — Yesterday and Last 2 Weeks

Now
81 °F

Passing clouds.


Feels Like: 80 °F
Forecast: 56 / 80 °F
Wind: 15 mph from West

Location: Ontario International Airport

Current Time: May 27, 2016 at 5:09:43 PM

Latest Report: May 27, 2016 at 3:53 PM


Visibility: 10 mi

Pressure: 29.78 "Hg

Humidity: 35%

Dew Point: 51 °F

Location of Rancho CucamongaLocation

Past Weather in Rancho Cucamonga — Graph

°F

Rancho Cucamonga Temperature Yesterday

Maximum temperature yesterday: 76 °F (at 3:53 PM)
Minimum temperature yesterday: 53 °F (at 3:53 AM)
Average temperature yesterday: 63 °F

High & Low Weather Summary for the Past Weeks

 TemperatureHumidityPressure
High89 °F (May 12, 3:53 PM)90% (May 13, 5:53 AM)30.08 "Hg (May 13, 5:53 AM)
Low51 °F (May 22, 5:53 AM)29% (May 13, 3:53 PM)29.77 "Hg (May 19, 5:53 PM)
Average64 °F64%29.92 "Hg
* Reported May 12 3:53 PM — May 27 3:53 PM, Rancho Cucamonga, Weather by CustomWeather, © 2016

Note: Actual official high and low records may vary slightly from our data, if they occured in-between our weather recording intervals... More about our weather records

Advertising

Rancho Cucamonga Weather History for the Previous 24 Hours

Scroll right to see more
 ConditionsComfort  
Time TempWeatherWind HumidityBarometerVisibility
3:53 PM
Fri, May 27
81 °FPassing clouds.15 mph35%29.78 "Hg10 mi
2:53 PM80 °FPassing clouds.14 mph36%29.80 "Hg10 mi
1:53 PM79 °FPassing clouds.13 mph36%29.82 "Hg10 mi
12:53 PM77 °FPassing clouds.10 mph42%29.85 "Hg10 mi
11:53 AM73 °FPassing clouds.5 mph48%29.88 "Hg10 mi
10:53 AM69 °FPassing clouds.No wind55%29.89 "Hg8 mi
9:53 AM66 °FPassing clouds.8 mph61%29.90 "Hg7 mi
8:53 AM63 °FScattered clouds.7 mph68%29.92 "Hg6 mi
7:53 AM61 °FHaze.3 mph72%29.92 "Hg6 mi
6:53 AM57 °FHaze.No wind83%29.93 "Hg5 mi
5:53 AM54 °FPassing clouds.3 mph86%29.93 "Hg10 mi
4:53 AM54 °FClear.5 mph86%29.92 "Hg10 mi
3:53 AM55 °FClear.5 mph83%29.92 "Hg10 mi
2:53 AM56 °FClear.3 mph84%29.93 "Hg10 mi
1:53 AM56 °FClear.3 mph84%29.95 "Hg10 mi
12:53 AM58 °FClear.5 mph78%29.95 "Hg10 mi
11:53 PM
Thu, May 26
59 °FClear.5 mph75%29.96 "Hg10 mi
10:53 PM61 °FClear.7 mph70%29.95 "Hg10 mi
9:53 PM62 °FClear.7 mph70%29.96 "Hg10 mi
8:53 PM63 °FPassing clouds.8 mph68%29.94 "Hg10 mi
7:53 PM65 °FPassing clouds.12 mph63%29.94 "Hg10 mi
6:53 PM69 °FPassing clouds.12 mph53%29.93 "Hg10 mi
5:53 PM72 °FPassing clouds.14 mph48%29.92 "Hg10 mi
Weather by CustomWeather, © 2016

See weather overviewHow to use our weather pages